Terminal Aerodrome Forecast
Issued by NWS Quad Cities IA IL

Home | Current Version | Previous Version | Text Only | Print | Product List | Glossary On
Versions: 1 2 3 4 5 6 7 8 9 10 11 12 13 14 15 16 17 18 19 20 21 22 23 24 25 26
169
FTUS43 KDVN 271338 AAB
TAFDBQ
TAF AMD
KDBQ 271338Z 2714/2812 28011G20KT P6SM -DZ OVC014
     FM272100 27012G19KT P6SM SCT035
     FM280000 28008KT P6SM SCT070=

USA.gov is the U.S. government's official web portal to all federal, state and local government web resources and services.